Regional Weather Roundup
Issued by NWS Charleston, SC

Current Version | Previous Version | Graphics & Text | Print | Product List | Glossary On
Versions: 1 2 3 4 5 6 7 8 9 10 11 12 13 14 15 16 17 18 19 20 21 22 23 24 25 26 27 28 29 30 31 32 33 34 35 36 37 38 39 40 41 42 43 44 45 46 47 48 49 50
000 ASUS42 KCHS 190327 RWRCHS Regional Weather Roundup National Weather Service Charleston SC 1000 PM EST SUN FEB 18 2018 NOTE: "fair" indicates few or no clouds below 12,000 feet with no significant weather and/or obstructions to visibility. Not all stations are quality controlled. Use data with caution, especially dewpoint observations. SCZ027-030-031-034>040-042>050-190400- ...Southeast South Carolina... CITY SKY/WX TMP DP RH WIND PRES REMARKS N Charleston CLOUDY 61 54 77 E8 30.35S Waterfront Prk N/A 59 56 89 NE13 30.20R Mount Pleasant CLOUDY 57 54 88 NE7 30.36S Johns Island CLOUDY 61 55 82 NE10 30.35S Pinopolis N/A 57 52 82 E5 30.27S Moncks Corner CLOUDY 57 52 82 E5 30.36S Summerville CLOUDY 55 48 76 CALM 30.36S Beaufort MCAS CLOUDY 62 56 80 NE5 30.34S Beaufort Arpt CLOUDY 61 54 77 NE6 30.33F Hilton Head Is CLOUDY 61 55 82 VRB6 30.34F Walterboro CLOUDY 59 50 72 E5 30.36S Allendale CLOUDY 59 55 88 CALM 30.34R ...Southern Midlands and Pee Dee... CITY SKY/WX TMP DP RH WIND PRES REMARKS Georgetown CLOUDY 54 52 94 E9 30.39S Kingstree CLOUDY 55 46 71 E6 30.38S Orangeburg CLOUDY 57 46 66 E3 30.36R Barnwell N/A 59 55 88 E6 30.35S Aiken CLOUDY 55 52 88 E5 30.38R Manning CLOUDY 55 21 26 MISG 30.37S Columbia CLOUDY 60 50 69 SE8 30.35S Sumter CLOUDY 58 44 61 E6 30.35S Florence CLOUDY 57 46 66 SE6 30.39R Myrtle Beach CLOUDY 54 48 82 NE14 30.40R N Myrtle Beach LGT RAIN 53 48 83 E12 30.38S $$ GAZ063-065-086>088-099>101-113>116-118-119-134>141-150-190400- ...Southeast Georgia... CITY SKY/WX TMP DP RH WIND PRES REMARKS Savannah Arpt MOCLDY 62 57 83 E8 30.34R Hunter AAF MOCLDY 61 56 83 NE6 30.31R Fort Stewart CLOUDY 62 57 85 E6 30.31R Statesboro CLOUDY 62 55 78 SE3 30.33S Sylvania CLOUDY 61 59 91 SE5 30.34S Claxton CLOUDY 62 59 89 E5 30.33S ...CSRA, Central and far Southeast Georgia... CITY SKY/WX TMP DP RH WIND PRES REMARKS Thomson CLOUDY 60 57 91 S8 30.37R Augusta-Bush CLOUDY 59 56 89 E7 30.33R Augusta-Daniel CLOUDY 60 55 83 E9 30.34R Swainsboro CLOUDY 63 59 88 SE10 30.33R Vidalia CLOUDY 63 61 94 E6 30.32S Eastman CLOUDY 68 58 70 SE10 30.31R Hazlehurst CLOUDY 65 58 77 SE7 30.30S Alma CLOUDY 64 60 87 E8 30.30R Waycross CLOUDY 65 62 90 E7 30.31R Jesup CLOUDY 64 57 77 CALM 30.32S Baxley CLOUDY 61 61 100 E7 30.31S Brunswick CLOUDY 61 57 88 NE5 30.33R Saint Simons CLOUDY 61 59 93 N8 30.31S $$ SCZ027-028-034-036>038-045-046-048>050-GAZ119-141-190400- ...Lake and Supplemental Coastal Observations... STATION/POSITION TIME TEMP WIND PRES WAVE SWELL AIR SEA DIR/SP/G HT/PER HT/PER/DIR (UTC) (F) (DEG/KT/KT) (MB) (FT/S) (FT/S/D) Winyah Bay 0230 54 60/ 15 1029.0R Lake Murray 0320 58 120/ 5/ 8 1027.1 ACE Basin NERRS 0245 60 40/ 4 1027.0S Fort Pulaski 0300 60 59 60/ 12/ 15 1027.4 Sapelo Island 0300 62 40/ 6 1026.0 $$ ANZ835-935-AMZ111-154-330-350-352-354-370-450-454-472-190400- ...C-MAN and Buoy Observations... STATION/POSITION TIME TEMP WIND PRES WAVE SWELL AIR SEA DIR/SP/G HT/PER HT/PER/DIR (UTC) (F) (DEG/KT/KT) (MB) (FT/S) (FT/S/D) Buoy 41004 0310 68 67 50/ 10/ 14 1026.6 Buoy 41008 0250 59 59 30/ 10/ 12 1025.9R 2/ 9 2/140/ 9 Folly Beach CMAN 0300 58 50/ 16/ 18 1028.0S Capers Nearshore 0308 53 56 50/ 16/ 19 1027.5R Fripp Nearshore 0308 56 56 50/ 14/ 19 1026.4R STATION/POSITION TIME TEMP WIND PRES WAVE SWELL AIR SEA DIR/SP/G HT/PER HT/PER/DIR (UTC) (F) (DEG/KT/KT) (MB) (FT/S) (FT/S/D) 5E St. Marys GA 0300 60 N/A 2/ 9 Frying Pan Buoy 0310 64 66 90/ 17/ 23 1027.9 Buoy 41025 0310 54 73 10/ 17/ 23 1031.2 Cape Lookout NC 0300 40/ 20/ 23 1030.9R Buoy 41002 0250 69 72 80/ 16/ 19 1027.5R 6/ 7 3/ 90/10 Buoy 41010 NOT AVBL St Augustine FL 0300 62 60 350/ 6/ 7 1025.6S $$

USA.gov is the U.S. government's official web portal to all federal, state and local government web resources and services.